C/2016 N4 ( MASTER )

Japanese version
Home page
Updated on March 25, 2017

---------------------------------------------------------------------

* Profile

Discovery Date July 15, 2016
Magnitude 16.8 mag
Discoverer Mobile Astronomical System of the Telescope-Robots (MASTER)

* Pictures

* Orbital Elements

Epoch 2017 Sept. 4.0 TT = JDT 2458000.5
T 2017 Sept. 16.59566 TT                                MPCW
q   3.1990803            (2000.0)            P               Q
z  +0.0001866      Peri.   55.95580     +0.58262438     -0.80666466
 +/-0.0000020      Node   354.03142     -0.14120830     +0.01973146
e   0.9994029      Incl.   72.55728     +0.80038057     +0.59067994
From 644 observations 2016 July 15-2017 Feb. 4, mean residual 0".4.

* Finding Charts

* Magnitudes Graph

        m1 = 6.5 + 5 log d + 10.0 log r

---------------------------------------------------------------------

The orbital elements are published on M.P.E.C. 2017-E59.
The charts are made with StellaNavigator Ver.10 (AstroArts).
The magnitudes graphs are made with Comet for Windows.

---------------------------------------------------------------------

Copyright(C) Seiichi Yoshida (comet@aerith.net). All rights reserved.